Location: Boiro
(42.6475°N, 8.8834°W)
Time: 05:39:45
(UTC+02:00)

CUBESAT XI-V - Visible Passes

Search period start: 16 April 2024 00:00
Search period end: 26 April 2024 00:00
Orbit: 658 x 681 km, 98.2° (Epoch: 15 April)

Date Brightness Start Highest point End Pass type
(mag) Time Alt. Az. Time Alt. Az. Time Alt. Az.
16 Apr ? 03:37:40 22° NE 03:37:40 22° NE 03:40:21 10° NNE visible
16 Apr ? 05:15:52 23° NW 05:15:52 23° NW 05:17:56 10° NNW visible
17 Apr ? 04:10:33 35° NNE 04:10:33 35° NNE 04:13:35 10° N visible
17 Apr ? 05:48:45 13° WNW 05:48:45 13° WNW 05:49:42 10° NW visible
18 Apr ? 03:05:14 12° ENE 03:05:18 12° ENE 03:06:59 10° NE visible
18 Apr ? 04:43:26 39° NNW 04:43:26 39° NNW 04:46:22 10° NNW visible
19 Apr ? 03:38:06 23° NE 03:38:06 23° NE 03:41:11 10° NNE visible
19 Apr ? 05:16:18 26° NW 05:16:18 26° NW 05:18:44 10° NNW visible
20 Apr ? 04:10:58 40° NE 04:10:58 40° NE 04:14:23 10° N visible
20 Apr ? 05:49:10 15° WNW 05:49:10 15° WNW 05:50:27 10° NW visible
21 Apr ? 03:05:38 12° ENE 03:06:04 12° ENE 03:07:48 10° NE visible
21 Apr ? 04:43:49 47° NNW 04:43:49 47° NNW 04:47:08 10° NNW visible
22 Apr ? 03:38:29 23° ENE 03:38:29 23° ENE 03:41:56 10° NNE visible
22 Apr ? 05:16:40 29° WNW 05:16:40 29° WNW 05:19:28 10° NNW visible
23 Apr ? 04:11:19 44° NE 04:11:19 44° NE 04:15:06 10° N visible
23 Apr ? 05:49:31 16° WNW 05:49:31 16° WNW 05:51:08 10° NW visible
24 Apr ? 03:05:58 12° ENE 03:06:46 12° ENE 03:08:31 10° NE visible
24 Apr ? 04:44:09 55° NNW 04:44:09 55° NNW 04:47:49 10° NNW visible
25 Apr ? 03:38:48 24° ENE 03:38:58 24° ENE 03:42:37 10° NNE visible
25 Apr ? 05:17:00 32° WNW 05:17:00 32° WNW 05:20:07 10° NNW visible
